KE5YIM-13 Weather Reports


time (UTC)temp
C
wind
direction
speed
KPH
gust
KPH
rain 1hr
cm
rain 24hr
cm
rain mn
cm
humidity
%
barometer
mb
20260506150155 16 237 6.4 12.9 0.00 0.00 0.00 82 1011.2
20260506145652 16 229 8.0 14.5 0.00 0.00 0.00 82 1011.1
20260506145149 16 203 4.8 16.1 0.00 0.00 0.00 82 1011.2
20260506144647 16 197 9.7 14.5 0.00 0.00 0.00 81 1011.2
20260506144143 16 118 4.8 17.7 0.00 0.00 0.00 81 1011.3
20260506143641 16 167 8.0 12.9 0.00 0.00 0.00 81 1011.5
20260506143139 16 177 3.2 9.7 0.00 0.00 0.00 81 1011.6
20260506142637 16 167 8.0 11.3 0.00 0.00 0.00 81 1011.3
20260506142135 16 147 4.8 16.1 0.00 0.00 0.00 81 1011.3
20260506141632 16 192 8.0 22.5 0.00 0.00 0.00 81 1011.4
20260506141130 17 217 9.7 16.1 0.00 0.00 0.00 80 1011.4
20260506140627 17 163 11.3 17.7 0.00 0.00 0.00 79 1011.2
20260506140125 17 156 11.3 12.9 0.00 0.00 0.00 80 1011.3
20260506135621 17 118 4.8 9.7 0.00 0.00 0.00 80 1011.6
20260506135118 16 162 8.0 17.7 0.00 0.00 0.00 80 1011.6
20260506134614 17 114 3.2 16.1 0.00 0.00 0.00 81 1011.6
20260506134110 17 113 4.8 9.7 0.00 0.00 0.00 80 1011.6
20260506133608 16 168 9.7 16.1 0.00 0.00 0.00 80 1011.4
20260506133104 16 108 4.8 11.3 0.00 0.00 0.00 81 1011.4
20260506132602 16 67 1.6 14.5 0.00 0.00 0.00 81 1011.3
20260506132059 16 142 1.6 11.3 0.00 0.00 0.00 82 1011.1
20260506131556 16 109 6.4 12.9 0.00 0.00 0.00 82 1011.2
20260506131052 16 174 6.4 9.7 0.00 0.00 0.00 82 1011.1
20260506130549 16 266 6.4 9.7 0.00 0.00 0.00 82 1011.4
20260506130047 16 69 1.6 11.3 0.00 0.00 0.00 82 1011.1
20260506125545 16 130 4.8 8.0 0.00 0.00 0.00 82 1011.3
20260506125042 16 265 6.4 11.3 0.00 0.00 0.00 83 1011.4
20260506124540 16 291 4.8 11.3 0.00 0.00 0.00 82 1011.5
20260506124038 16 233 8.0 14.5 0.00 0.00 0.00 82 1011.5
20260506123535 16 260 4.8 8.0 0.00 0.00 0.00 83 1011.6
20260506123033 16 138 8.0 12.9 0.00 0.00 0.00 83 1011.8
20260506122529 16 194 11.3 12.9 0.00 0.00 0.00 83 1011.9
20260506122028 16 183 8.0 14.5 0.00 0.00 0.00 83 1012.1
20260506121525 16 56 4.8 8.0 0.00 0.00 0.00 84 1012.2
20260506121021 15 189 8.0 11.3 0.00 0.00 0.00 84 1012.0
20260506120519 16 255 14.5 24.1 0.00 0.00 0.00 84 1011.9
20260506120016 15 168 4.8 9.7 0.00 0.00 0.00 85 1011.7
20260506115514 15 235 9.7 16.1 0.00 0.00 0.00 85 1011.7
20260506115012 15 120 3.2 4.8 0.00 0.00 0.00 86 1011.8
20260506114509 15 211 4.8 11.3 0.00 0.00 0.00 87 1011.6
20260506114008 15 289 3.2 8.0 0.00 0.00 0.00 88 1011.8
20260506113505 14 266 6.4 11.3 0.00 0.00 0.00 88 1011.6
20260506113002 14 234 4.8 8.0 0.00 0.00 0.00 88 1011.6
20260506112459 14 181 3.2 12.9 0.00 0.00 0.00 89 1011.8
20260506111956 14 159 1.6 8.0 0.00 0.00 0.00 89 1012.0
20260506111455 14 194 4.8 16.1 0.00 0.00 0.00 89 1011.8
20260506110951 14 253 4.8 8.0 0.00 0.00 0.00 89 1011.6
20260506110449 14 183 4.8 4.8 0.00 0.00 0.00 89 1011.7
20260506105945 14 269 6.4 12.9 0.00 0.00 0.00 90 1012.0
20260506105441 13 300 4.8 4.8 0.00 0.00 0.00 90 1012.0
20260506104939 13 113 3.2 4.8 0.00 0.00 0.00 91 1011.8
20260506104437 13 248 4.8 11.3 0.00 0.00 0.00 91 1011.7
20260506103935 13 173 3.2 4.8 0.00 0.00 0.00 91 1011.8
20260506103432 13 224 4.8 4.8 0.00 0.00 0.00 92 1011.9
20260506102929 13 221 4.8 8.0 0.00 0.00 0.00 92 1011.8
20260506102427 13 140 3.2 9.7 0.00 0.00 0.00 92 1011.7
20260506101924 13 163 1.6 9.7 0.00 0.00 0.00 92 1011.7
20260506101420 13 225 4.8 9.7 0.00 0.00 0.00 92 1011.7
20260506100918 13 250 4.8 8.0 0.00 0.00 0.00 92 1011.5
20260506100416 13 245 4.8 9.7 0.00 0.00 0.00 92 1011.6
20260506095913 13 162 4.8 8.0 0.00 0.00 0.00 92 1011.6
20260506095412 13 134 1.6 4.8 0.00 0.00 0.00 92 1011.5
20260506094908 13 237 4.8 4.8 0.00 0.00 0.00 91 1011.5
20260506094407 13 84 1.6 3.2 0.00 0.00 0.00 91 1011.5
20260506093904 13 94 3.2 4.8 0.00 0.00 0.00 91 1011.5
20260506093401 13 353 3.2 3.2 0.00 0.00 0.00 90 1011.4
20260506092859 13 124 4.8 11.3 0.00 0.00 0.00 90 1011.6
20260506092357 13 43 1.6 3.2 0.00 0.00 0.00 90 1011.6
20260506091853 13 184 3.2 4.8 0.00 0.00 0.00 90 1011.7
20260506091351 13 288 4.8 4.8 0.00 0.00 0.00 90 1011.5
20260506090848 13 225 8.0 12.9 0.00 0.00 0.00 89 1011.8
20260506090346 13 199 6.4 11.3 0.00 0.00 0.00 89 1011.7
20260506085842 13 268 6.4 12.9 0.00 0.00 0.00 89 1011.6
20260506085338 13 218 1.6 8.0 0.00 0.00 0.00 89 1011.6
20260506084835 13 255 6.4 11.3 0.00 0.00 0.00 89 1011.9
20260506084332 13 167 6.4 9.7 0.00 0.00 0.00 89 1011.9
20260506083828 13 76 3.2 9.7 0.00 0.00 0.00 89 1012.0
20260506083326 13 239 6.4 11.3 0.00 0.00 0.00 89 1012.0
20260506082823 13 107 1.6 4.8 0.00 0.00 0.00 88 1011.9
20260506082320 13 101 3.2 8.0 0.00 0.00 0.00 88 1011.9
20260506081816 13 157 4.8 8.0 0.00 0.00 0.00 88 1011.9
20260506081314 13 124 3.2 8.0 0.00 0.00 0.00 88 1012.0
20260506080812 13 261 9.7 14.5 0.00 0.00 0.00 88 1011.9
20260506080308 13 125 1.6 3.2 0.00 0.00 0.00 88 1011.8
20260506073252 13 267 4.8 9.7 0.00 0.00 0.00 87 1012.0
20260506072748 13 158 1.6 4.8 0.00 0.00 0.00 87 1011.8
20260506072246 13 272 3.2 4.8 0.00 0.00 0.00 87 1011.8
20260506071744 13 258 4.8 12.9 0.00 0.00 0.00 87 1012.1
20260506071242 13 124 3.2 4.8 0.00 0.00 0.00 86 1011.9
20260506070738 13 123 1.6 4.8 0.00 0.00 0.00 86 1011.7
20260506070235 14 273 6.4 9.7 0.00 0.00 0.00 86 1011.9
20260506062212 14 203 4.8 4.8 0.00 0.00 0.00 85 1012.0
20260506061708 14 207 4.8 8.0 0.00 0.00 0.00 85 1012.0
20260506061206 14 154 3.2 9.7 0.00 0.00 0.00 84 1011.9
20260506060705 14 206 4.8 8.0 0.00 0.00 0.00 84 1011.8
20260506060201 14 264 3.2 4.8 0.00 0.00 0.00 84 1011.9
20260506051133 15 209 3.2 8.0 0.00 0.00 0.00 81 1012.1
20260506050631 15 196 3.2 4.8 0.00 0.00 0.00 81 1012.0
20260506050128 15 138 4.8 4.8 0.00 0.00 0.00 81 1012.2
20260506045121 15 101 1.6 4.8 0.00 0.00 0.00 80 1012.2
20260506044619 16 126 3.2 8.0 0.00 0.00 0.00 80 1012.2
20260506044116 16 282 6.4 11.3 0.00 0.00 0.00 79 1012.1
20260506043613 16 149 4.8 14.5 0.00 0.00 0.00 79 1012.1
20260506043111 16 305 4.8 12.9 0.00 0.00 0.00 79 1012.0
20260506042610 16 138 6.4 8.0 0.00 0.00 0.00 79 1012.3
20260506042107 16 244 4.8 8.0 0.00 0.00 0.00 78 1012.3
20260506041606 16 181 6.4 11.3 0.00 0.00 0.00 78 1012.3
20260506041102 16 263 8.0 11.3 0.00 0.00 0.00 78 1012.2
20260506040600 16 197 4.8 17.7 0.00 0.00 0.00 77 1012.3
20260506040056 16 177 8.0 12.9 0.00 0.00 0.00 77 1012.0
20260506035553 16 240 4.8 9.7 0.00 0.00 0.00 77 1012.1
20260506035050 16 187 4.8 4.8 0.00 0.00 0.00 77 1012.4
20260506034547 16 115 3.2 4.8 0.00 0.00 0.00 77 1012.1
20260506034044 16 192 3.2 11.3 0.00 0.00 0.00 77 1012.0
20260506033541 16 245 6.4 11.3 0.00 0.00 0.00 77 1012.1
20260506033038 16 238 6.4 11.3 0.00 0.00 0.00 77 1011.9
20260506032536 16 119 3.2 4.8 0.00 0.00 0.00 77 1012.0
20260506032032 16 109 8.0 12.9 0.00 0.00 0.00 76 1012.1
20260506031530 16 140 4.8 12.9 0.00 0.00 0.00 76 1012.1
20260506031027 16 169 8.0 11.3 0.00 0.00 0.00 76 1012.0
20260506030525 16 123 6.4 14.5 0.00 0.00 0.00 76 1012.2
20260506030022 16 279 4.8 9.7 0.00 0.00 0.00 75 1012.1
20260506025519 16 240 6.4 14.5 0.00 0.00 0.00 74 1012.3
20260506025015 16 124 4.8 11.3 0.00 0.00 0.00 74 1012.1
20260506024512 16 180 4.8 12.9 0.00 0.00 0.00 74 1012.1
20260506024008 16 232 8.0 11.3 0.00 0.00 0.00 74 1012.2
20260506023504 17 192 6.4 16.1 0.00 0.00 0.00 73 1012.2
20260506023001 17 82 3.2 14.5 0.00 0.00 0.00 73 1012.1
20260506022459 17 196 6.4 9.7 0.00 0.00 0.00 72 1012.2
20260506021957 17 159 1.6 11.3 0.00 0.00 0.00 72 1012.4
20260506021454 17 335 3.2 17.7 0.00 0.00 0.00 72 1012.1
20260506020951 17 267 9.7 17.7 0.00 0.00 0.00 71 1012.0
20260506020449 17 206 3.2 9.7 0.00 0.00 0.00 72 1012.0
20260506015945 17 142 4.8 12.9 0.00 0.00 0.00 71 1011.9
20260506015443 17 204 9.7 11.3 0.00 0.00 0.00 71 1011.8
20260506014940 17 75 6.4 14.5 0.00 0.00 0.00 71 1011.9
20260506014437 17 299 6.4 11.3 0.00 0.00 0.00 72 1011.8
20260506013933 17 183 6.4 11.3 0.00 0.00 0.00 72 1011.8
20260506013432 17 201 4.8 8.0 0.00 0.00 0.00 71 1011.7
20260506012928 17 278 6.4 9.7 0.00 0.00 0.00 71 1011.4
20260506012424 17 214 11.3 17.7 0.00 0.00 0.00 70 1011.4
20260506011921 17 270 8.0 12.9 0.00 0.00 0.00 70 1011.7
20260506011418 17 298 6.4 12.9 0.00 0.00 0.00 70 1011.4
20260506010915 17 145 4.8 9.7 0.00 0.00 0.00 70 1011.5
20260506010414 17 251 9.7 17.7 0.00 0.00 0.00 70 1011.4
20260506005910 17 265 9.7 12.9 0.00 0.00 0.00 70 1011.3
20260506005408 17 252 4.8 16.1 0.00 0.00 0.00 70 1011.3
20260506004902 17 251 11.3 12.9 0.00 0.00 0.00 70 1011.0
20260506004401 17 279 8.0 14.5 0.00 0.00 0.00 70 1010.9
20260506003856 17 244 8.0 11.3 0.00 0.00 0.00 70 1011.1
20260506003353 17 132 1.6 9.7 0.00 0.00 0.00 71 1011.0
20260506002849 17 190 6.4 16.1 0.00 0.00 0.00 69 1010.9
20260506002346 17 209 8.0 12.9 0.00 0.00 0.00 70 1010.9
20260506001841 17 219 4.8 14.5 0.00 0.00 0.00 69 1011.1
20260506001339 17 146 6.4 16.1 0.00 0.00 0.00 69 1011.1
20260506000836 17 215 6.4 12.9 0.00 0.00 0.00 68 1010.7
20260506000334 17 278 12.9 16.1 0.00 0.00 0.00 67 1010.6
20260505235830 17 218 6.4 16.1 0.00 0.00 0.00 67 1010.8
20260505235327 17 263 8.0 16.1 0.00 0.00 0.00 67 1010.5
20260505234824 18 132 3.2 11.3 0.00 0.00 0.00 67 1010.5
20260505234322 17 238 6.4 12.9 0.00 0.00 0.00 67 1010.5
20260505233819 17 279 6.4 16.1 0.00 0.00 0.00 67 1010.5
20260505233317 18 280 8.0 11.3 0.00 0.00 0.00 67 1010.4
20260505232814 18 251 8.0 22.5 0.00 0.00 0.00 66 1010.5
20260505232311 18 215 4.8 11.3 0.00 0.00 0.00 66 1010.5
20260505231808 18 231 4.8 14.5 0.00 0.00 0.00 66 1010.3
20260505231306 18 247 8.0 12.9 0.00 0.00 0.00 66 1010.1
20260505230804 18 170 4.8 12.9 0.00 0.00 0.00 66 1010.1
20260505230300 18 256 11.3 16.1 0.00 0.00 0.00 65 1010.1
20260505225757 19 128 3.2 4.8 0.00 0.00 0.00 65 1010.1
20260505225254 19 121 1.6 9.7 0.00 0.00 0.00 65 1009.9
20260505224749 19 235 14.5 16.1 0.00 0.00 0.00 64 1009.8
20260505224247 20 141 3.2 9.7 0.00 0.00 0.00 64 1010.0
20260505223745 20 176 6.4 22.5 0.00 0.00 0.00 63 1010.1
20260505223241 20 185 6.4 11.3 0.00 0.00 0.00 63 1010.2
20260505222737 20 275 4.8 9.7 0.00 0.00 0.00 63 1010.1
20260505222233 20 248 4.8 17.7 0.00 0.00 0.00 63 1010.2
20260505221731 20 180 3.2 9.7 0.00 0.00 0.00 64 1010.0
20260505221227 20 279 11.3 16.1 0.00 0.00 0.00 63 1010.1
20260505220724 20 209 8.0 12.9 0.00 0.00 0.00 62 1010.1
20260505220222 20 217 6.4 12.9 0.00 0.00 0.00 62 1009.9
20260505215720 20 157 4.8 22.5 0.00 0.00 0.00 63 1010.0
20260505215217 20 271 14.5 20.9 0.00 0.00 0.00 63 1009.8
20260505214714 20 223 6.4 16.1 0.00 0.00 0.00 63 1009.8
20260505214212 20 88 1.6 8.0 0.00 0.00 0.00 63 1009.9
20260505213709 20 111 4.8 11.3 0.00 0.00 0.00 64 1010.0
20260505213206 20 255 8.0 20.9 0.00 0.00 0.00 64 1009.9
20260505212702 20 163 4.8 9.7 0.00 0.00 0.00 64 1010.0
20260505212159 20 197 11.3 20.9 0.00 0.00 0.00 63 1009.8
20260505211656 20 122 6.4 16.1 0.00 0.00 0.00 63 1009.7
20260505211154 20 193 8.0 16.1 0.00 0.00 0.00 62 1009.8
20260505210650 21 146 11.3 12.9 0.00 0.00 0.00 62 1009.8
20260505210147 20 112 4.8 20.9 0.00 0.00 0.00 62 1009.9
20260505205644 20 147 8.0 14.5 0.00 0.00 0.00 63 1009.8
20260505205142 20 157 8.0 14.5 0.00 0.00 0.00 63 1010.0
20260505204639 21 170 12.9 14.5 0.00 0.00 0.00 61 1009.8
20260505204137 21 245 8.0 9.7 0.00 0.00 0.00 62 1009.8
20260505203633 21 255 8.0 14.5 0.00 0.00 0.00 62 1009.6
20260505203131 21 141 6.4 22.5 0.00 0.00 0.00 62 1009.9
20260505202626 21 258 8.0 9.7 0.00 0.00 0.00 62 1009.9
20260505202122 21 93 3.2 11.3 0.00 0.00 0.00 63 1010.0
20260505201619 21 214 6.4 14.5 0.00 0.00 0.00 62 1009.9
20260505201117 21 132 4.8 9.7 0.00 0.00 0.00 63 1009.9
20260505200615 21 201 8.0 12.9 0.00 0.00 0.00 62 1009.9
20260505200111 21 275 8.0 11.3 0.00 0.00 0.00 62 1010.0
20260505195608 21 139 4.8 14.5 0.00 0.00 0.00 63 1010.0
20260505195105 21 242 8.0 20.9 0.00 0.00 0.00 62 1010.3
20260505194602 21 239 8.0 16.1 0.00 0.00 0.00 61 1010.0
20260505194058 21 185 4.8 14.5 0.00 0.00 0.00 62 1010.2
20260505193555 21 245 4.8 20.9 0.00 0.00 0.00 61 1010.1
20260505193052 21 112 4.8 12.9 0.00 0.00 0.00 62 1010.3
20260505192551 21 107 6.4 12.9 0.00 0.00 0.00 62 1010.3
20260505192048 21 305 8.0 20.9 0.00 0.00 0.00 62 1010.5
20260505191546 21 115 8.0 14.5 0.00 0.00 0.00 62 1010.7
20260505191044 21 243 4.8 24.1 0.00 0.00 0.00 61 1010.4
20260505190544 21 242 4.8 16.1 0.00 0.00 0.00 63 1010.8
20260505190040 21 90 6.4 22.5 0.00 0.00 0.00 62 1010.7
20260505185537 22 223 11.3 22.5 0.00 0.00 0.00 61 1010.9
20260505185033 21 236 8.0 14.5 0.00 0.00 0.00 63 1010.8
20260505184530 21 127 4.8 9.7 0.00 0.00 0.00 63 1010.7
20260505184027 21 175 11.3 12.9 0.00 0.00 0.00 62 1010.9
20260505183524 21 213 11.3 16.1 0.00 0.00 0.00 62 1010.7
20260505183021 21 68 4.8 16.1 0.00 0.00 0.00 64 1010.8
20260505182517 21 260 9.7 12.9 0.00 0.00 0.00 61 1010.8
20260505182014 22 226 8.0 16.1 0.00 0.00 0.00 61 1010.8
20260505181511 21 182 4.8 11.3 0.00 0.00 0.00 63 1010.8
20260505181008 21 193 4.8 9.7 0.00 0.00 0.00 63 1010.9
20260505180504 22 161 3.2 9.7 0.00 0.00 0.00 64 1010.7
20260505180001 21 207 9.7 12.9 0.00 0.00 0.00 62 1011.0
20260505175457 22 160 4.8 16.1 0.00 0.00 0.00 63 1010.9
20260505174954 22 157 4.8 14.5 0.00 0.00 0.00 61 1010.7
20260505174451 22 225 6.4 12.9 0.00 0.00 0.00 60 1011.0
20260505173947 22 122 4.8 12.9 0.00 0.00 0.00 62 1010.8
20260505173444 22 180 11.3 20.9 0.00 0.00 0.00 60 1011.2
20260505172941 22 122 8.0 12.9 0.00 0.00 0.00 62 1011.2
20260505172439 22 221 8.0 14.5 0.00 0.00 0.00 61 1011.2
20260505171938 22 176 4.8 9.7 0.00 0.00 0.00 64 1011.1
20260505171435 21 233 9.7 11.3 0.00 0.00 0.00 61 1011.3
20260505170932 22 129 8.0 16.1 0.00 0.00 0.00 61 1011.1
20260505170429 21 267 6.4 12.9 0.00 0.00 0.00 62 1011.2
20260505165924 21 174 4.8 14.5 0.00 0.00 0.00 62 1011.2
20260505165420 21 154 8.0 14.5 0.00 0.00 0.00 61 1011.2
20260505164916 21 183 4.8 17.7 0.00 0.00 0.00 63 1011.0
20260505164413 21 113 1.6 3.2 0.00 0.00 0.00 65 1011.1
20260505163911 21 271 6.4 12.9 0.00 0.00 0.00 62 1011.4
20260505163410 21 247 6.4 12.9 0.00 0.00 0.00 64 1011.4
20260505162908 21 95 8.0 9.7 0.00 0.00 0.00 64 1011.4
20260505162403 21 119 6.4 12.9 0.00 0.00 0.00 64 1011.8
20260505161900 21 92 3.2 9.7 0.00 0.00 0.00 63 1011.8
20260505161357 20 163 3.2 14.5 0.00 0.00 0.00 65 1011.9
20260505160854 20 143 11.3 12.9 0.00 0.00 0.00 64 1011.9
20260505160353 21 109 6.4 17.7 0.00 0.00 0.00 65 1011.8
20260505153331 20 144 3.2 9.7 0.00 0.00 0.00 65 1012.2
20260505152828 20 131 6.4 12.9 0.00 0.00 0.00 66 1012.3
20260505152326 20 131 6.4 12.9 0.00 0.00 0.00 65 1012.3
20260505151826 20 194 9.7 14.5 0.00 0.00 0.00 65 1012.4
20260505151323 20 102 1.6 11.3 0.00 0.00 0.00 67 1012.5
20260505150819 20 116 6.4 9.7 0.00 0.00 0.00 64 1012.4
20260505150316 20 272 3.2 9.7 0.00 0.00 0.00 68 1012.5